sat.trackr.live / text

‹ back to catalog

GONETS-M 22

NORAD 47229 · 2020-091C

PAYLOAD ACTIVE UNKNOWN

§ Identity

Operator
Country
CIS
Launch date
2020-12-03
Launch site
PLMSC
Launch vehicle
Mass (kg)
RCS (m²)

External: N2YO · Heavens-Above · Gunter

§ Orbital elements

Epoch: 2026-05-25T04:08:14.057088Z

Period
115.86 min
Inclination
82.5018°
Eccentricity
0.0021113
Mean motion
12.42891561 rev/d
Perigee alt
1,477.7 km
Apogee alt
1,511.0 km
Semi-major
7,872.5 km
B*
3.6905e-4
RAAN
316.3553°
Arg perigee
224.1675°
Mean anomaly
135.7719°
Rev number
24,816

§ Raw data

GONETS-M 221 47229U 20091C   26145.17238492  .00000061  00000+0  36905-3 0  99922 47229  82.5018 316.3553 0021113 224.1675 135.7719 12.42891561248164

JSON: /api/v1/satellites/47229 · /tle

For live sub-satellite position, see the globe view (requires WebGL).

§ Visibility from observer

Set your observer location to see the next 7 days of passes ≥ 10°. The values pass through the URL so the page stays shareable.

No JS? Fill the form by hand. The geolocation button needs JavaScript.

§ Radio — SatNOGS DB

ModeDescriptionDownlinkUplink
FM UHF Unknown 388.687 MHz
FM UHF Unknown 388.787 MHz
FM UHF Unknown 262.910 MHz

3 transmitters · refreshed weekly from db.satnogs.org